Hourly Weather Roundup
Issued by NWS Central Illinois

Home | Current Version | Previous Version | Text Only | Print | Product List | Glossary On
Versions: 1 2 3 4 5 6 7 8 9 10 11 12 13 14 15 16 17 18 19 20 21 22 23 24 25 26 27 28 29 30 31 32 33 34 35 36 37 38 39 40 41 42 43 44 45 46 47 48 49 50
000
NZUS43 KILX 020610
HWRILX

AREA WEATHER ROUNDUP
NATIONAL WEATHER SERVICE, LINCOLN IL
100 AM CDT THU APR 02 2015


CITY           SKY/WX    TMP DP  RH WIND       PRES   REMARKS
BLOOMINGTON    PTCLDY    57  40  53 S22G31    29.81F
6HR MIN TEMP:  57; 6HR MAX TEMP:  65;

CHAMPAIGN      MOCLDY    56  36  47 SE16      29.84F
6HR MIN TEMP:  53; 6HR MAX TEMP:  65;

DECATUR        MOCLDY    60  38  43 S15       29.82F
6HR MIN TEMP:  59; 6HR MAX TEMP:  67;

EFFINGHAM      MOCLDY    59  34  39 SE9       29.88F
FLORA          CLOUDY    57  38  49 S10       29.87F
6HR MIN TEMP:  57; 6HR MAX TEMP:  65;

GALESBURG      PTCLDY    57  41  55 SE9       29.74S
JACKSONVILLE   RAIN      56  52  88 W3        29.79F
6HR MIN TEMP:  56; 6HR MAX TEMP:  71; 6HR PCP:  0.13;

LACON          PTCLDY    60  37  42 S9G23     29.77S
6HR MIN TEMP:  59; 6HR MAX TEMP:  69;

LAWRENCEVILLE  CLOUDY    59  34  39 SE10      29.89F
6HR MIN TEMP:  56; 6HR MAX TEMP:  64;

LITCHFIELD     PTCLDY    60  38  44 SE13      29.81F
$$


CITY           SKY/WX    TMP DP  RH WIND       PRES   REMARKS
LINCOLN        MOCLDY    59  41  52 S9G16     29.79F
6HR MIN TEMP:  57; 6HR MAX TEMP:  67;

MACOMB         MOCLDY    62  47  57 S15G24    29.77S
MATTOON        CLOUDY    59  35  40 S14       29.85F
6HR MIN TEMP:  59; 6HR MAX TEMP:  65;

MT CARMEL AP   CLOUDY    61  32  33 SE12      29.89F
OLNEY-NOBLE AP MOCLDY    59  37  44 SE10      29.88F
PARIS          PTCLDY    52  39  61 SE12      29.88F
6HR MIN TEMP:  51; 6HR MAX TEMP:  62;

PEORIA         PTCLDY    62  40  44 S15       29.77F
6HR MIN TEMP:  61; 6HR MAX TEMP:  70;

PONTIAC        CLEAR     58  39  49 S21       29.80F
RANTOUL        PTCLDY    55  38  54 S12       29.85F
6HR MIN TEMP:  54; 6HR MAX TEMP:  66;

ROBINSON       MOCLDY    57  34  42 SE9       29.89F
6HR MIN TEMP:  55; 6HR MAX TEMP:  63;

SPRINGFIELD    LGT RAIN  63  41  44 S16       29.80F
6HR MIN TEMP:  62; 6HR MAX TEMP:  70; 6HR PCP: TRACE;

TAYLORVILLE    MOCLDY    59  39  47 S12       29.80F
$$

...REGIONAL REPORTS...


CITY           SKY/WX    TMP DP  RH WIND       PRES   REMARKS
CHICAGO O`HARE MOCLDY    59  35  40 S17G28    29.79F
KANKAKEE       PTCLDY    56  37  49 S15       29.82F
MOLINE         CLEAR     62  38  40 S9        29.72S
MOUNT VERNON   CLOUDY    61  37  41 SE5       29.87F
PITTSFIELD     TSTM      59  55  86 SE3       29.78F
QUINCY         CLOUDY    57  55  93 W6        29.75F
ROCKFORD       CLOUDY    56  39  53 S14       29.78S
$$


CITY           SKY/WX    TMP DP  RH WIND       PRES   REMARKS
BURLINGTON     MOCLDY    62  50  64 SW13      29.73R
CEDAR RAPIDS   PTCLDY    58  49  72 S12       29.66F
DES MOINES     CLOUDY    61  52  72 NW20      29.68R
KIRKSVILLE     MOCLDY    59  56  89 S12       29.71F
OTTUMWA        CLOUDY    60  54  80 S16G25    29.67F
ST LOUIS       CLOUDY    67  48  50 S13G20    29.81R
$$


CITY           SKY/WX    TMP DP  RH WIND       PRES   REMARKS
TERRE HAUTE    MOCLDY    54  34  46 SE9       29.89F
EVANSVILLE     CLOUDY    63  32  31 S9        29.92F
INDIANAPOLIS   PTCLDY    53  30  41 SE13      29.92F
LAFAYETTE      CLEAR     53  34  48 SE8       29.88F
MADISON        PTCLDY    58  39  49 S10       29.72S
MILWAUKEE      PTCLDY    59  37  44 S13       29.76F
$$




USA.gov is the U.S. government's official web portal to all federal, state and local government web resources and services.